Theta_e
324 325 326 325 324 324 322 324 328 329 330 331 328 323 322 321 320 320 319 318 319 319 319 318 317 317 317 317 316 316 316 316 317 317 318 319 320 321 322 322 324 326 327 327 326 326 326 326 326 325 321 315 313 315 315 316 317 318 324 326 325 329 329 327 325 318 321 324 318 317 319 318 318 318 318 320 320 321 320 321 324 324 325 325 327 325 322 330
323 324 325 325 324 325 323 324 328 329 329 330 329 323 321 321 320 319 319 318 319 319 319 319 317 317 316 316 316 316 316 316 316 317 317 318 320 321 322 323 324 326 326 326 326 326 326 326 326 325 322 317 313 314 316 317 317 320 325 324 326 334 328 321 319 316 318 320 317 317 318 318 318 318 318 321 321 322 325 328 327 326 325 326 328 327 322 328
323 324 324 325 324 324 324 326 329 330 329 330 328 323 320 320 319 318 318 319 319 318 319 319 318 317 316 316 316 316 317 317 318 317 317 318 319 321 323 324 325 325 326 326 326 326 326 326 326 326 322 318 315 313 315 317 318 318 319 323 332 331 321 316 315 315 318 318 317 317 318 318 318 318 318 320 320 320 327 330 329 327 325 326 327 325 322 327
322 324 324 324 325 324 324 327 330 329 329 328 325 322 320 319 319 318 318 318 318 318 318 318 317 317 317 316 317 317 317 318 319 318 318 318 318 321 323 326 326 326 326 326 327 326 326 326 326 326 321 317 314 313 314 315 318 317 316 324 329 320 317 318 316 316 317 317 317 317 317 318 317 318 317 318 320 319 320 324 325 324 322 324 326 324 322 326
321 324 324 324 325 324 323 327 329 328 328 327 323 322 321 319 319 318 318 318 317 317 317 317 317 317 317 317 317 317 318 320 321 319 319 319 320 321 324 327 327 327 327 327 327 326 326 326 326 324 319 316 315 313 314 314 316 317 316 319 320 315 317 318 316 317 317 316 317 316 317 319 317 317 317 318 320 319 319 319 319 318 318 320 323 324 324 325
321 323 324 324 325 324 324 326 327 326 326 326 323 323 321 319 319 319 318 318 318 317 318 317 317 317 317 317 317 317 318 322 322 320 320 320 322 323 325 327 328 328 327 327 327 327 327 325 324 320 316 317 316 313 314 313 313 318 318 316 316 315 316 317 316 316 317 317 316 316 317 318 316 316 317 318 319 318 318 318 318 317 317 318 320 324 325 324
321 321 323 324 324 324 324 325 328 327 325 325 324 324 323 321 320 320 319 319 319 318 318 318 318 317 317 317 317 317 318 320 321 320 320 320 323 325 325 327 328 328 327 327 327 326 326 325 322 317 316 321 317 311 312 312 311 315 318 317 316 316 315 316 316 315 317 317 317 317 317 317 316 317 316 316 318 318 317 317 317 317 318 320 321 322 323 322
320 321 322 324 323 324 324 325 328 327 324 324 324 323 323 322 320 319 319 319 319 319 319 319 319 319 318 318 318 318 318 319 321 320 320 320 322 323 324 326 327 328 326 326 327 325 326 325 322 318 319 324 319 312 312 312 311 314 317 317 316 316 315 315 315 316 316 317 317 317 316 316 317 317 315 316 317 317 316 317 316 317 319 321 321 321 322 322
319 320 322 323 321 322 324 324 327 327 325 325 323 322 323 323 321 320 319 319 319 319 320 319 319 319 320 319 319 320 320 319 321 321 321 320 320 321 323 325 326 327 326 325 325 325 325 324 321 320 321 320 317 314 312 310 312 313 314 316 315 316 315 315 315 315 316 316 317 316 315 316 316 316 315 316 316 316 317 317 316 317 320 321 321 320 320 321
317 319 321 323 321 320 323 324 325 326 326 326 324 324 324 323 322 321 319 320 320 320 320 320 320 320 321 321 320 321 322 321 322 321 321 322 320 321 322 325 326 326 326 324 324 324 324 323 321 322 321 317 316 315 311 310 311 312 312 313 314 315 315 315 315 314 315 316 316 317 315 314 314 315 316 316 316 316 317 317 317 317 319 319 320 319 318 318
317 319 320 322 322 320 322 325 325 325 326 326 325 325 325 324 323 322 320 320 321 321 321 320 320 321 322 322 321 322 323 322 322 321 321 322 320 320 323 325 326 326 325 324 324 323 324 323 322 323 321 317 317 316 312 311 311 311 311 312 313 314 314 314 314 314 315 315 315 315 314 313 314 314 316 316 315 316 317 317 317 317 318 318 319 319 318 317
316 319 320 320 321 320 321 326 327 325 326 326 325 325 325 325 324 323 322 321 322 322 321 321 321 322 322 321 321 322 323 322 322 321 321 322 321 321 323 325 326 325 324 323 321 322 323 323 322 323 320 317 318 317 314 312 311 311 311 314 314 313 314 314 313 314 314 314 315 315 314 314 315 315 316 315 315 316 316 317 317 318 318 318 319 319 318 317
315 318 320 319 320 320 321 325 327 326 325 326 326 325 325 325 324 324 324 322 322 322 322 322 322 323 323 322 322 322 322 322 322 322 320 320 322 322 324 326 324 321 320 321 320 320 320 320 320 320 317 316 317 316 315 312 310 312 311 313 315 314 315 315 313 314 314 314 314 314 316 317 316 314 315 315 315 317 318 318 317 318 318 318 319 319 318 317
315 318 320 319 319 320 321 323 325 326 326 325 325 325 325 324 323 324 324 323 323 322 322 323 323 324 323 323 323 322 322 321 322 323 321 320 321 323 325 323 319 316 316 318 320 318 316 317 318 317 315 315 315 314 313 311 310 313 312 314 317 317 319 317 312 314 314 314 314 314 316 319 318 315 315 315 314 317 319 318 318 319 319 319 319 318 318 317
315 318 320 318 319 321 320 321 323 325 325 325 325 324 323 322 323 323 324 324 323 322 323 323 324 324 324 323 323 323 323 321 321 322 320 320 321 324 324 318 314 314 314 316 318 316 314 314 316 315 313 313 315 315 313 310 311 314 313 317 317 315 322 319 311 313 315 314 313 313 315 319 318 315 314 315 314 317 318 318 319 319 319 319 319 319 318 317
314 318 320 318 318 321 320 321 322 324 325 324 323 322 321 321 321 322 323 323 323 323 323 323 324 324 324 323 322 323 324 322 320 318 318 320 322 324 321 315 315 315 314 315 317 314 313 314 314 314 312 315 320 318 313 310 313 316 316 320 320 316 319 318 312 312 313 314 313 313 315 318 317 312 313 314 314 316 316 318 319 319 319 319 319 319 318 318
315 319 320 318 317 320 322 322 322 323 324 322 321 321 321 320 320 321 323 323 323 323 323 324 324 324 322 320 320 322 324 324 319 315 317 321 322 322 319 315 315 315 314 315 316 314 313 313 313 314 314 317 321 316 312 311 313 316 315 317 322 318 316 317 315 312 311 313 314 313 314 317 316 311 311 313 314 315 314 316 318 318 319 318 318 318 317 317
317 320 320 318 319 321 323 324 323 323 322 321 321 321 321 321 321 321 322 323 323 322 322 322 322 324 323 317 318 322 324 324 318 314 319 321 321 322 320 317 315 315 314 314 314 313 313 312 314 319 317 317 319 314 313 315 314 317 316 315 318 316 314 317 317 314 312 314 315 314 314 315 316 312 311 312 313 314 314 314 316 316 317 318 318 317 316 316
318 321 319 317 320 322 323 324 323 321 321 321 321 321 321 321 321 321 322 323 321 319 319 320 321 324 323 319 319 322 324 322 317 315 319 321 321 320 319 318 316 315 314 313 314 312 313 313 314 319 318 316 317 314 312 314 315 318 317 316 318 318 316 317 319 315 313 314 315 314 315 314 315 314 312 312 312 312 313 313 313 314 315 315 316 316 316 315
319 320 318 318 321 322 322 322 322 321 321 322 322 322 321 320 319 318 319 321 320 318 317 319 321 319 318 318 318 321 320 317 316 316 318 320 320 317 315 316 315 314 314 313 313 312 312 315 315 317 317 315 315 313 311 311 312 312 312 314 316 318 317 317 319 315 311 314 315 314 315 314 315 315 311 310 312 311 311 312 311 313 314 314 315 315 315 314
319 320 318 319 322 322 321 321 321 322 322 322 322 322 320 319 319 317 317 318 319 318 316 318 320 316 315 318 320 321 317 314 316 317 317 319 318 315 313 314 313 314 313 312 312 312 313 315 316 315 315 314 313 312 310 310 310 310 311 312 313 316 317 316 316 314 311 313 315 314 314 313 313 314 311 309 311 311 311 311 311 312 313 314 314 314 315 315
319 319 317 319 322 321 321 321 321 323 323 321 321 321 320 319 319 318 318 317 317 315 315 318 318 314 315 317 319 320 315 313 315 316 315 314 315 313 313 313 313 313 312 312 312 312 313 315 314 314 314 313 313 312 310 310 310 311 312 312 314 316 316 315 314 314 312 313 316 315 313 313 314 313 311 308 310 312 312 313 313 314 314 314 314 314 314 315
320 319 318 320 321 321 321 319 318 321 322 322 321 320 320 319 318 319 319 317 316 314 315 319 317 313 313 314 317 315 312 312 313 313 312 311 312 313 313 312 313 312 312 312 313 313 314 314 313 313 312 312 313 312 311 310 310 312 313 312 315 316 315 315 314 313 313 313 315 316 315 316 314 314 312 310 310 312 313 314 314 314 314 314 314 314 314 314
321 320 320 321 321 322 321 317 317 320 322 321 320 319 319 318 318 320 317 315 315 312 314 318 315 312 312 314 316 315 312 312 312 312 311 311 312 312 312 312 312 312 312 312 313 314 314 312 312 312 311 312 313 312 311 312 311 313 314 314 315 316 315 315 314 313 313 312 313 315 316 318 317 315 315 313 311 311 311 312 313 313 314 314 313 313 314 314
321 320 321 321 321 322 320 317 318 321 322 320 319 319 318 318 318 318 314 313 312 310 313 316 312 311 312 313 316 316 313 312 311 312 311 311 312 312 312 312 312 312 312 312 313 314 313 311 311 312 311 312 312 312 312 312 313 314 315 315 314 314 316 316 315 314 313 314 315 314 315 320 322 319 315 314 313 312 311 310 311 313 314 314 313 314 314 314
321 321 321 321 321 322 321 320 320 321 320 318 318 318 317 317 318 317 314 315 313 310 313 315 311 312 313 312 314 314 313 313 311 312 311 311 312 312 311 310 311 312 312 311 311 313 312 311 310 311 311 312 312 312 312 313 313 312 316 317 314 314 317 318 317 315 317 317 315 312 314 320 322 319 316 314 313 313 311 309 310 313 314 314 314 315 314 314
322 322 321 321 321 321 321 320 320 321 318 317 318 317 317 317 317 316 315 317 315 312 313 313 311 312 312 312 312 311 313 313 311 311 311 311 312 311 311 310 310 310 311 311 311 312 311 310 310 311 311 311 312 311 312 313 312 314 319 320 317 316 319 320 317 317 320 317 314 313 315 317 316 316 317 314 313 314 312 310 309 310 313 314 315 315 315 314
321 321 322 321 320 320 320 320 320 320 317 317 317 316 317 316 316 315 315 317 316 312 312 311 310 312 312 311 312 311 312 312 312 312 311 311 311 310 311 310 310 310 310 311 312 311 311 311 311 311 311 311 311 312 313 314 312 317 323 320 317 317 320 320 316 318 318 314 318 318 314 315 318 323 322 315 313 315 315 314 311 309 311 313 314 315 315 315
320 321 321 321 320 320 320 320 319 319 317 316 316 316 316 315 315 314 315 315 313 311 312 311 310 312 311 311 311 311 311 312 312 312 311 312 311 310 311 310 309 310 309 310 313 313 310 310 310 311 311 311 312 313 313 314 313 316 320 319 320 321 319 317 317 320 316 313 320 321 314 313 319 327 324 315 314 315 316 317 312 308 310 313 313 315 315 315
320 320 321 321 321 319 319 319 318 318 317 316 316 316 315 314 314 315 315 314 311 310 311 310 310 311 311 310 310 310 311 311 311 311 311 311 311 310 311 311 309 311 314 311 313 315 311 309 310 311 311 311 312 312 312 314 314 313 319 320 320 323 321 321 326 324 315 316 324 323 316 312 315 324 322 315 316 317 315 317 314 309 310 311 313 314 314 315
321 320 321 321 320 319 318 318 317 317 316 316 316 315 314 315 315 316 315 312 311 311 310 310 311 311 310 310 310 311 311 310 309 311 311 311 311 310 310 311 310 314 317 312 313 316 311 310 311 310 311 311 313 313 312 314 313 314 322 323 318 323 324 324 328 321 314 320 325 320 316 312 313 321 322 317 317 317 314 315 317 313 310 312 313 313 313 314
320 321 320 320 319 318 318 317 317 316 315 315 315 314 314 315 316 316 313 312 313 311 310 312 311 310 310 310 311 311 311 311 309 310 312 310 311 310 311 313 311 313 314 312 314 314 312 315 313 309 310 312 315 315 313 314 315 315 321 319 316 320 321 319 322 318 317 320 317 313 314 314 314 317 318 316 316 316 312 310 313 312 311 313 314 313 314 314
320 320 320 319 318 318 317 317 316 315 315 315 314 314 314 315 316 315 311 312 313 311 311 313 311 310 310 310 311 311 312 312 310 310 311 311 311 311 312 314 313 315 316 313 314 314 315 318 314 311 311 311 313 314 314 316 316 314 316 317 317 319 317 316 318 316 316 318 314 310 312 316 317 316 317 317 313 313 310 308 311 312 312 314 313 313 314 314
319 319 318 318 317 317 317 316 315 315 315 315 314 313 314 315 315 313 311 311 312 310 311 312 310 310 310 310 311 311 313 312 310 311 311 311 312 311 312 312 311 317 319 315 314 313 315 317 315 314 312 311 314 314 317 320 317 317 319 318 319 322 321 318 319 319 318 319 315 310 313 320 320 317 316 312 309 310 310 310 311 311 313 315 313 314 314 314
318 317 317 316 316 316 316 315 315 315 315 314 314 313 314 315 314 312 310 309 310 310 311 311 310 310 310 310 311 310 313 312 310 311 311 311 312 311 312 310 310 316 318 314 313 313 314 314 315 314 310 311 315 314 316 318 317 318 320 318 316 321 323 318 318 322 322 319 316 312 316 322 319 314 313 309 308 309 309 310 311 311 314 314 313 314 313 314
316 316 315 315 315 315 315 315 314 315 315 313 313 313 313 313 313 312 310 309 310 310 311 312 310 311 310 310 311 311 311 312 311 311 311 311 311 311 312 311 310 313 314 313 314 314 314 313 314 314 310 310 312 312 312 314 316 316 316 318 317 317 322 319 313 315 316 316 317 313 314 320 317 314 317 315 313 313 311 311 310 311 314 313 314 315 314 314
315 314 315 315 314 314 314 314 314 315 314 313 313 313 313 313 312 312 310 309 310 310 312 313 312 311 311 310 311 311 312 312 311 311 312 311 311 311 311 311 310 310 312 313 313 315 317 316 313 314 313 310 308 309 310 309 314 318 316 317 316 313 318 321 315 315 314 314 319 315 313 318 317 316 322 320 315 316 316 312 309 310 312 312 314 314 314 314
314 314 314 314 314 314 314 314 314 314 313 312 313 313 315 314 310 310 310 309 310 311 312 313 312 312 311 311 311 311 312 313 311 311 311 311 312 312 310 310 310 309 310 311 312 315 318 318 313 311 314 313 310 311 313 310 310 315 315 315 316 315 316 318 317 317 314 313 320 319 313 316 317 318 323 318 316 319 316 312 311 311 310 311 313 314 312 312
314 314 313 313 314 314 314 314 314 313 312 312 313 314 317 317 311 308 309 310 311 312 313 313 313 312 311 311 311 310 312 312 310 311 311 311 313 312 309 311 311 309 308 310 313 315 316 319 316 311 312 312 311 313 316 314 310 311 312 311 314 318 318 316 316 318 317 315 320 320 314 318 320 320 322 317 316 319 315 314 313 309 309 312 313 313 312 312
314 313 312 313 314 313 314 314 313 313 312 312 313 315 317 317 311 308 309 311 311 312 313 313 312 312 311 311 311 310 312 312 310 310 312 311 311 310 309 310 311 310 308 309 313 314 313 317 318 312 310 312 313 315 317 316 313 313 314 313 313 314 315 314 315 320 322 319 320 317 316 328 329 318 317 316 314 315 312 313 313 307 308 312 313 312 312 312
313 313 312 313 313 313 313 313 312 312 312 311 310 314 316 313 310 309 309 311 311 312 313 312 312 311 311 311 311 311 311 312 310 310 312 311 310 311 310 309 310 311 310 310 313 315 312 315 319 315 313 314 318 318 316 315 315 314 315 316 315 314 316 316 314 317 318 317 321 318 316 331 334 318 315 316 314 312 308 308 309 307 308 312 312 312 312 312
312 312 312 312 313 313 313 313 313 312 312 310 309 313 314 311 309 309 309 310 312 313 311 311 311 311 311 311 311 311 311 311 310 310 312 311 310 312 311 309 309 310 311 312 313 314 314 318 322 318 315 316 318 315 309 310 315 315 314 315 315 316 318 317 316 318 317 314 318 317 313 324 334 322 316 314 309 308 306 305 306 307 308 310 312 312 312 312
311 312 312 312 313 313 313 314 313 312 311 311 310 311 312 310 309 309 310 311 313 313 311 310 311 310 311 311 311 311 311 311 311 311 312 312 311 311 310 309 310 310 310 313 313 313 314 319 320 319 317 318 320 316 309 308 313 314 315 315 314 314 315 319 324 323 320 316 315 314 312 320 333 319 306 305 304 306 307 307 306 307 308 309 311 312 312 312
311 311 312 312 312 312 313 314 313 312 311 310 311 312 312 311 310 310 311 312 313 313 311 310 311 310 311 311 311 311 311 311 311 311 313 313 310 309 309 308 310 311 310 312 313 312 313 317 317 318 318 317 319 318 312 311 312 314 317 316 314 314 313 317 320 316 316 320 318 314 313 319 330 320 308 307 308 307 307 307 308 310 309 309 311 312 311 311
312 311 311 311 311 312 312 312 311 312 311 310 311 314 314 313 311 310 311 312 314 314 311 311 311 311 312 312 311 311 311 312 313 312 313 314 312 309 308 308 310 310 310 311 311 310 316 319 316 315 316 314 315 316 314 315 315 316 319 317 314 315 314 315 317 313 315 319 316 315 316 318 323 321 316 315 315 312 309 307 308 310 310 310 310 311 312 311
312 312 311 310 310 311 311 310 310 310 311 310 312 315 316 315 313 311 311 313 313 314 314 313 312 311 312 312 311 311 311 313 314 312 312 315 316 311 308 308 309 309 310 312 310 313 321 321 315 313 314 313 315 316 316 317 316 314 316 317 315 315 314 316 319 316 316 318 316 316 316 316 317 317 316 317 317 316 312 307 307 310 311 311 310 310 312 312
312 312 311 311 311 311 311 310 310 310 310 310 312 314 315 315 314 312 312 314 313 313 315 314 312 312 312 311 312 311 311 313 314 313 313 316 315 310 307 307 308 308 310 311 310 315 322 318 314 315 313 314 320 320 315 315 315 313 314 316 316 316 315 316 317 315 316 318 315 314 314 313 314 314 315 316 316 316 312 306 307 309 311 312 311 311 312 312
310 311 311 311 312 311 311 311 310 309 309 310 312 314 314 315 314 313 315 315 313 313 315 314 312 312 312 311 312 312 311 313 313 312 314 315 313 311 310 308 308 308 310 310 310 314 319 315 314 315 313 315 321 319 314 314 315 313 314 315 316 316 316 316 314 314 317 316 312 313 315 314 312 313 315 314 312 313 311 309 309 309 309 311 312 312 313 312
309 310 310 310 311 311 310 310 310 309 309 311 313 314 314 315 314 315 317 316 314 314 314 314 313 313 312 312 312 312 311 312 312 312 314 313 312 314 314 311 309 307 309 312 310 310 314 317 316 314 312 314 317 316 314 315 315 314 314 314 314 315 315 315 314 313 314 314 313 313 315 314 312 313 314 311 309 309 309 308 309 309 309 310 310 312 313 313
309 310 310 309 309 309 309 309 309 309 308 310 314 314 313 314 314 316 317 315 315 316 314 314 314 313 312 313 312 312 311 312 313 313 312 312 313 314 314 313 311 309 309 312 311 308 312 317 316 313 312 314 315 316 315 315 315 314 315 314 313 314 314 313 313 313 313 313 313 313 314 313 311 310 310 310 309 309 308 308 309 309 309 309 309 310 311 312
307 308 308 309 309 309 310 309 309 309 308 310 313 313 312 313 314 316 315 312 313 316 315 314 314 312 312 313 313 313 311 312 314 312 310 312 312 312 313 312 311 312 312 313 312 312 312 313 312 313 315 313 313 316 316 314 313 313 315 315 313 313 313 312 313 313 313 313 313 313 313 312 312 311 310 309 309 308 308 310 310 310 309 309 309 309 310 311
307 307 308 309 309 309 309 309 309 309 308 309 311 312 313 313 314 315 314 311 310 313 313 313 313 312 312 312 313 312 310 311 312 310 310 311 310 310 311 310 309 312 314 313 314 316 315 314 314 314 316 313 311 314 316 314 313 313 314 314 312 312 312 312 313 313 313 312 313 313 312 312 315 315 312 311 310 308 309 312 312 312 311 310 310 310 310 310
Wind_Speed
43 43 45 48 46 45 48 49 48 47 47 48 46 43 42 41 42 41 40 40 38 36 35 35 34 34 33 33 32 31 29 27 25 26 28 28 25 23 25 26 24 20 17 16 13 15 16 16 16 13 11 5 8 6 3 3 3 1 2 2 2 3 4 5 6 7 4 4 10 14 14 12 9 11 14 12 14 16 13 10 11 12 7 7 10 7 23 33
44 43 45 48 47 44 45 48 48 47 49 49 47 45 44 41 41 41 40 39 38 35 34 34 33 32 32 31 31 30 28 25 25 27 29 29 27 24 23 24 26 24 20 16 16 16 16 14 13 9 9 6 7 5 3 3 3 3 2 2 4 5 4 4 5 9 6 8 15 17 16 15 14 16 18 10 9 14 11 8 10 11 11 10 11 13 25 33
43 42 43 46 48 45 44 48 49 50 52 52 50 49 46 43 41 41 40 38 37 35 33 32 31 31 29 28 27 26 25 22 22 28 31 32 30 26 22 22 23 25 23 18 17 18 19 15 12 9 7 6 4 6 5 3 3 4 3 1 5 6 5 6 6 11 12 13 19 18 16 16 17 19 17 12 10 10 9 11 12 13 15 13 15 20 26 33
44 43 42 45 48 46 45 48 51 54 55 53 51 50 47 44 42 40 39 38 36 34 33 32 30 29 27 26 24 22 20 15 19 27 30 32 33 30 23 21 20 21 22 19 17 18 21 19 15 12 6 4 5 8 4 3 3 3 4 4 5 3 3 8 6 9 11 15 23 20 14 14 18 19 16 17 11 4 12 20 17 16 19 19 21 24 26 31
45 44 43 44 47 47 46 48 52 56 57 54 50 48 45 44 42 39 38 37 36 34 32 31 29 28 26 25 22 21 18 6 12 25 27 27 30 30 25 21 19 19 20 18 17 17 20 20 16 13 7 3 4 6 4 5 4 3 5 9 10 3 2 8 6 6 10 12 19 19 14 15 19 15 18 23 11 9 19 23 19 17 18 19 22 25 26 30
45 45 44 44 46 47 47 48 50 52 53 51 48 46 45 43 42 39 38 36 35 33 31 30 29 28 26 25 22 22 19 5 1 15 26 27 26 27 25 20 19 18 17 16 17 17 18 20 16 12 8 3 2 3 6 12 9 5 6 9 12 9 4 7 6 5 11 15 17 19 17 19 18 10 19 26 17 15 20 20 17 16 16 18 21 24 26 28
46 47 46 45 46 46 48 48 49 50 49 48 47 46 44 43 43 40 39 36 34 33 30 29 28 28 26 25 23 22 22 13 2 1 19 31 28 26 23 17 18 18 16 16 16 18 19 19 17 13 9 4 1 3 10 19 15 6 6 7 9 9 7 8 7 6 13 20 20 20 17 19 18 9 15 24 22 16 14 16 17 16 17 20 23 24 25 26
47 48 48 48 47 47 49 49 49 50 50 49 46 44 42 42 43 41 40 36 35 32 30 29 27 28 27 26 25 21 23 24 12 6 11 30 33 28 23 17 17 18 17 16 16 19 18 18 18 14 8 5 5 2 10 17 13 4 6 9 7 7 7 8 7 6 14 17 16 16 14 19 19 9 12 21 20 15 13 16 18 19 21 22 24 24 24 25
48 50 51 50 50 48 49 51 52 50 48 47 45 43 42 42 43 42 40 37 35 32 30 28 27 27 25 26 25 17 20 26 21 12 10 28 36 31 26 19 18 19 18 17 17 20 18 19 20 15 10 7 7 5 9 10 5 3 8 13 9 7 6 7 5 5 12 14 15 13 8 13 14 6 10 18 17 15 14 16 20 23 24 24 25 24 24 25
50 52 52 51 50 47 47 52 54 50 45 44 44 43 43 43 43 42 40 38 35 32 30 28 26 26 25 26 22 11 16 24 21 14 13 27 35 33 27 19 20 21 19 18 19 21 20 20 21 18 12 7 7 7 7 7 7 14 18 17 11 9 6 6 6 4 8 12 17 12 4 7 9 3 7 15 17 16 16 16 21 26 26 26 25 25 23 23
53 54 52 50 48 47 48 50 54 54 47 44 44 44 43 43 43 42 40 37 35 32 30 29 27 27 26 27 23 11 13 22 21 10 12 26 30 31 25 19 22 24 20 19 19 21 22 20 22 18 9 7 8 7 11 12 13 22 20 11 8 5 4 7 7 5 5 7 13 11 4 2 4 3 7 16 20 18 18 17 22 27 27 27 26 25 24 22
55 56 53 51 49 48 51 51 55 57 50 45 45 44 43 42 42 41 40 37 35 32 30 29 27 27 26 25 24 18 14 22 22 10 11 21 27 27 22 20 24 23 20 21 21 21 21 21 25 20 11 11 7 3 10 16 19 24 14 4 3 3 2 7 7 7 5 4 10 11 4 3 4 8 11 17 22 20 19 19 22 27 28 28 27 27 26 23
58 57 54 54 52 51 54 53 53 54 51 47 45 45 45 43 42 41 40 38 35 32 31 30 28 28 26 21 21 20 15 20 23 14 11 16 23 24 21 22 22 19 18 21 22 22 22 23 26 23 18 15 7 4 9 20 21 18 8 4 1 3 3 7 7 6 5 3 10 12 3 6 7 14 14 18 25 23 21 23 24 27 29 29 29 28 27 25
61 59 57 57 55 53 55 55 52 49 48 48 47 46 45 43 43 42 41 37 35 33 31 31 29 29 26 18 20 23 15 14 20 19 14 14 20 21 22 24 19 16 16 18 21 24 23 25 28 23 18 15 9 5 9 16 12 7 3 3 2 2 4 6 6 8 5 4 10 9 3 6 7 17 19 18 26 26 24 25 25 28 29 29 30 29 28 27
62 61 59 59 57 53 53 56 54 49 48 50 49 46 45 45 43 43 41 37 36 34 33 32 30 29 22 14 17 24 19 14 18 20 17 16 21 25 26 25 18 16 16 16 21 25 23 24 26 19 13 13 10 2 6 7 4 2 3 3 1 4 4 6 4 11 8 3 7 7 3 6 7 13 19 19 26 28 26 26 27 28 29 29 30 29 28 27
63 62 61 60 58 54 54 57 56 53 51 50 49 46 45 45 43 42 39 38 36 34 34 32 32 29 16 9 13 23 25 18 18 19 18 19 23 28 29 23 18 16 16 16 22 25 23 21 19 14 11 10 7 4 4 5 4 3 2 3 2 4 3 3 3 9 9 3 4 4 2 4 5 7 11 19 27 29 26 26 28 29 29 29 29 29 29 27
64 64 62 62 60 57 57 57 57 58 54 51 49 47 46 44 42 40 37 37 35 34 35 33 34 27 10 8 14 23 31 25 20 21 21 23 24 28 32 25 20 18 17 18 22 23 21 17 13 9 7 6 6 4 2 5 5 3 1 2 3 3 3 2 3 6 7 4 5 5 3 6 6 5 6 19 27 28 25 26 29 30 29 30 29 29 29 28
66 65 62 61 60 59 60 61 62 62 58 54 50 48 46 42 40 38 37 38 36 33 31 30 32 19 7 16 20 25 34 30 23 23 24 28 26 28 33 29 23 21 21 19 17 19 16 11 9 5 3 4 6 7 6 6 5 3 2 3 3 2 3 4 3 5 7 4 5 6 5 10 10 6 6 15 22 25 26 27 29 30 30 30 30 30 30 29
68 65 63 61 60 61 61 63 63 61 62 57 52 51 47 43 42 38 40 41 36 24 14 26 35 13 4 22 29 27 32 30 26 26 27 30 28 28 30 29 28 26 22 14 10 16 14 7 6 5 6 8 10 10 8 5 5 4 3 3 4 3 3 4 5 6 8 5 5 7 7 11 12 8 7 14 17 21 24 24 24 26 29 29 30 31 31 32
68 65 64 62 62 63 61 60 57 57 64 62 60 56 46 40 28 23 38 44 44 28 11 30 41 12 1 19 31 28 28 28 28 30 28 30 32 30 27 27 26 21 16 10 8 15 14 7 7 9 10 11 12 11 7 8 9 6 3 3 3 4 4 4 4 5 5 6 6 8 9 11 11 8 8 13 13 15 20 21 22 24 27 29 30 31 32 33
67 66 65 64 65 64 61 58 55 59 65 67 69 58 49 46 22 25 45 37 41 33 12 30 35 7 3 21 34 35 31 24 26 33 28 30 35 28 24 24 17 8 9 12 10 11 11 7 9 7 7 10 12 11 8 10 11 6 4 5 5 4 5 5 4 3 2 4 5 6 7 11 10 9 9 9 9 14 22 22 23 26 28 29 30 31 32 31
67 67 67 67 66 65 63 58 57 60 61 66 68 52 51 50 30 48 54 21 22 19 7 32 28 4 12 26 34 39 34 21 21 31 29 31 34 23 20 19 11 6 9 13 9 6 7 8 6 6 7 8 10 10 8 9 8 5 4 4 5 4 3 5 3 2 1 3 4 3 6 10 10 10 9 9 11 18 27 28 28 29 29 31 33 33 32 31
67 68 68 67 67 67 65 61 58 58 59 63 57 43 45 37 27 54 50 19 12 4 7 35 22 9 23 28 35 39 33 24 22 30 33 34 32 26 23 16 9 9 9 10 9 8 7 6 7 9 10 10 10 11 8 8 6 4 4 4 4 3 2 4 3 1 1 1 2 3 4 7 7 7 7 12 19 22 26 28 29 30 29 32 33 33 33 33
67 67 67 68 69 70 66 62 59 58 63 59 45 40 42 30 34 57 40 17 7 4 12 32 15 15 27 27 38 38 28 26 27 33 38 36 32 27 24 17 12 10 9 12 12 10 5 6 13 13 11 12 12 12 10 7 5 4 5 5 5 4 5 5 2 2 1 2 1 4 1 5 6 7 7 11 17 20 23 24 26 31 32 32 31 32 34 34
67 67 68 71 71 73 70 65 63 64 65 54 40 39 36 29 43 57 34 13 3 3 12 23 11 17 25 24 34 33 21 19 27 38 42 39 35 26 18 17 14 8 11 12 9 7 5 10 20 16 12 13 12 11 11 8 4 5 5 8 10 9 7 5 3 4 2 3 3 2 1 5 5 6 8 8 9 12 17 18 24 31 34 33 32 33 36 35
71 70 70 73 72 75 72 63 65 69 61 48 41 39 33 33 47 51 27 8 0 3 10 17 10 15 23 23 30 28 15 11 21 38 42 38 36 28 16 11 9 7 12 11 5 4 6 10 18 15 14 14 11 11 11 8 5 5 5 7 11 9 6 6 6 5 3 4 3 2 5 6 5 5 9 8 6 9 10 11 21 30 33 34 36 37 37 36
74 75 74 74 72 75 68 58 64 67 53 43 44 40 33 38 48 42 19 5 3 6 9 12 10 18 23 24 32 23 9 12 18 30 40 34 28 26 17 8 6 9 13 10 4 4 7 10 13 13 13 12 10 10 10 9 6 5 4 5 7 7 8 9 8 6 4 3 3 2 3 3 5 6 6 3 4 9 8 8 16 26 32 35 39 40 39 38
73 78 78 75 75 75 67 63 68 63 50 46 47 42 39 47 48 32 11 3 6 7 8 9 10 21 23 26 32 15 9 21 16 19 36 31 22 20 14 9 9 11 14 12 5 3 7 11 12 13 11 8 8 9 9 8 6 6 5 4 4 4 6 7 8 4 1 2 3 4 2 3 6 7 5 1 3 8 10 10 13 23 34 38 41 43 41 40
71 77 79 78 77 70 63 68 71 58 49 49 48 44 47 51 39 17 4 4 6 6 10 13 12 20 23 23 23 11 16 21 11 20 34 26 19 14 9 14 13 12 14 12 7 3 5 11 15 14 9 7 7 9 11 9 5 5 4 5 2 3 3 3 5 4 2 2 6 6 4 3 5 6 3 1 3 7 9 9 11 22 33 37 40 42 41 40
74 77 79 81 75 64 56 61 63 54 50 51 50 51 50 38 21 9 5 6 5 5 12 13 12 20 24 17 10 8 14 10 11 26 26 19 19 11 9 18 14 8 6 6 6 3 1 6 11 8 7 9 8 9 12 10 6 4 5 5 4 4 4 3 2 3 2 3 6 7 4 3 4 5 4 4 5 6 8 8 8 15 25 32 37 40 40 39
79 78 80 81 72 63 58 54 52 52 53 52 51 53 41 16 5 6 8 8 7 5 9 9 8 15 21 16 8 8 7 3 14 25 16 10 12 8 9 12 7 5 3 3 4 3 4 3 4 2 6 9 7 5 6 5 5 5 3 4 2 2 3 3 3 2 2 5 6 5 2 3 5 5 5 6 6 5 6 7 8 11 17 24 30 34 35 35
82 82 81 76 66 61 61 57 54 53 53 54 53 44 24 7 2 4 6 10 8 7 9 12 11 13 19 16 8 7 5 4 12 17 12 8 6 6 7 6 6 6 4 6 3 1 1 1 1 0 4 6 7 5 3 2 4 4 3 5 4 2 1 1 2 1 3 5 4 2 1 3 6 7 8 9 10 9 9 11 12 14 17 19 21 26 28 28
82 83 77 69 60 57 59 58 57 55 55 57 50 29 10 7 9 5 6 9 8 10 13 14 14 15 17 13 7 6 4 3 10 12 9 8 6 6 6 5 8 7 4 6 5 3 3 4 2 1 2 5 7 7 4 3 4 5 4 5 5 3 3 4 3 2 4 4 3 2 1 3 3 6 10 13 15 15 13 16 19 18 19 18 17 20 22 24
79 77 71 63 59 57 58 58 57 57 59 56 38 16 7 9 7 5 7 7 6 11 12 12 14 14 13 10 6 7 4 1 7 11 8 7 7 8 7 7 9 6 5 5 5 7 6 4 3 3 1 4 5 5 6 6 5 5 4 5 5 4 4 5 3 3 4 3 3 2 1 3 3 4 8 11 15 16 13 17 21 19 16 12 11 14 17 21
74 71 65 58 55 55 57 59 58 60 61 45 20 9 11 11 7 8 9 7 7 11 13 15 17 14 10 6 4 7 4 2 5 7 8 9 9 11 9 8 8 5 6 6 3 4 6 4 3 2 0 3 4 4 5 7 5 3 3 4 5 5 4 2 3 5 3 1 2 2 3 4 3 6 8 7 11 13 11 12 15 16 13 10 13 15 16 19
66 61 57 53 54 56 58 60 59 62 58 33 10 8 10 7 7 9 10 10 13 15 17 16 14 12 9 4 4 8 4 3 7 6 6 8 7 10 9 7 9 7 7 8 3 2 6 3 4 2 1 0 2 2 2 4 5 2 3 4 5 4 6 3 2 1 3 2 3 1 3 5 4 7 9 5 6 9 7 7 9 12 13 15 17 18 18 19
58 50 51 49 52 58 62 63 61 61 50 24 9 10 5 1 4 8 9 14 18 20 19 14 9 11 12 8 9 13 6 4 9 8 6 6 5 10 11 7 11 11 8 7 3 2 5 1 3 1 1 2 2 2 2 2 2 4 5 6 3 2 3 3 2 1 2 3 4 0 4 5 2 4 7 7 5 9 7 5 6 8 11 16 19 19 18 18
52 48 47 47 54 58 62 63 60 54 37 14 9 9 2 1 4 10 15 18 20 20 16 12 9 9 12 12 11 14 10 8 10 7 7 7 5 9 14 8 9 13 11 9 5 3 4 2 3 1 2 3 3 2 0 4 3 3 4 5 4 3 3 1 2 2 1 4 4 3 4 4 3 5 5 6 7 9 8 5 5 8 13 18 20 19 16 16
51 44 33 44 57 55 56 59 55 44 22 9 9 6 2 2 4 16 28 24 18 18 14 11 10 8 10 12 11 11 10 9 11 7 5 8 5 7 15 10 6 13 16 11 6 3 4 4 2 2 1 1 3 1 4 1 3 3 3 3 1 2 4 3 2 3 3 3 3 4 3 3 5 6 6 9 11 9 7 6 7 12 18 21 21 18 16 16
50 29 18 45 59 50 54 53 42 29 12 7 8 3 2 3 5 23 40 32 15 9 10 11 12 11 10 10 11 12 8 6 11 7 2 7 4 4 12 11 7 11 13 10 6 3 3 3 2 1 2 1 1 2 5 6 4 2 3 3 2 1 2 1 1 3 3 3 3 2 3 5 6 5 8 12 11 7 6 7 8 14 20 22 22 19 16 16
41 15 13 47 53 47 54 40 21 15 6 5 5 4 2 5 8 21 35 36 18 4 8 13 13 12 11 11 11 10 8 6 10 8 2 7 8 3 9 14 13 12 9 5 6 4 2 3 4 2 1 2 4 5 5 6 5 5 5 5 5 4 4 2 4 1 2 3 4 3 3 7 6 4 6 9 7 5 6 8 11 17 21 24 22 19 16 16
29 8 19 48 51 52 49 22 9 11 5 6 4 3 5 9 11 15 20 25 15 4 7 11 11 12 11 12 13 11 9 7 9 10 4 7 9 4 11 21 23 21 14 6 5 5 3 4 4 2 3 5 6 5 3 2 1 2 4 4 6 6 5 5 6 3 0 1 2 3 3 7 6 4 6 7 7 8 9 9 13 17 19 22 23 19 17 16
20 14 29 47 49 53 38 10 6 9 2 4 3 3 5 7 11 15 13 13 9 4 8 7 8 13 10 10 13 13 12 8 9 12 6 5 7 5 14 26 27 21 14 6 3 4 4 4 3 1 3 3 4 5 1 3 2 2 5 1 4 6 5 5 5 3 3 3 2 2 5 7 6 4 5 8 10 11 11 9 11 15 15 19 22 20 18 19
27 28 33 42 46 46 25 5 9 12 6 6 3 3 4 5 10 15 13 10 6 6 8 6 8 10 6 9 13 15 15 9 7 10 5 5 7 4 14 30 28 18 12 11 11 10 5 3 4 3 1 2 4 5 3 1 2 1 3 2 2 3 5 3 2 3 2 5 5 5 6 6 5 4 5 7 8 9 11 9 8 11 12 16 21 22 21 21
29 21 21 33 43 39 17 0 6 10 9 9 8 5 3 3 8 16 17 10 4 7 8 6 10 10 7 9 10 11 14 7 4 7 3 4 5 0 9 28 29 19 15 16 19 16 8 4 5 6 6 7 6 5 5 4 1 2 3 3 4 5 7 5 3 3 5 5 5 5 7 6 6 6 6 7 5 6 10 10 8 9 9 13 20 24 24 23
18 9 10 18 27 28 13 1 4 8 10 10 7 5 5 5 4 11 16 9 3 8 8 5 12 12 9 13 11 10 12 3 3 6 5 6 4 1 6 20 22 15 11 17 24 17 4 2 7 9 10 10 7 4 5 7 6 6 5 6 6 6 7 6 4 5 6 2 3 8 9 7 7 7 6 8 7 6 8 9 10 11 10 12 18 23 24 24
12 10 12 12 13 16 11 3 4 9 12 11 6 4 8 10 6 6 8 3 5 12 7 3 12 12 12 17 13 11 13 4 4 8 7 5 3 2 4 10 12 9 8 17 25 15 3 4 9 9 9 7 6 6 8 11 11 11 9 8 8 7 7 7 7 9 5 3 9 12 7 7 8 7 8 10 8 6 7 11 15 15 13 13 16 21 23 24
9 12 16 13 8 10 13 12 13 13 13 11 4 4 9 12 12 10 4 1 7 12 6 3 12 17 19 20 13 10 12 5 3 8 6 4 4 3 4 4 4 5 6 11 16 9 3 6 7 6 6 4 4 7 10 12 11 11 13 13 12 10 11 11 13 12 8 7 15 10 6 10 9 6 10 12 10 10 11 14 16 14 14 15 17 20 22 23
9 11 13 11 4 4 10 13 14 14 14 10 3 5 12 15 15 10 4 4 7 7 6 8 12 15 19 18 13 12 14 10 7 8 6 7 6 4 4 3 2 3 5 6 6 3 3 5 4 6 6 3 4 7 8 10 8 7 12 15 14 14 16 17 19 17 13 14 16 9 9 15 10 9 12 13 13 15 14 13 13 13 16 18 20 21 22 24
10 11 12 10 3 6 14 14 11 11 10 8 4 4 10 16 17 9 2 8 13 8 7 13 15 15 16 17 14 13 17 16 12 10 9 9 7 4 4 4 3 3 4 4 3 1 3 4 3 6 5 3 4 5 7 9 8 7 9 12 13 15 16 18 17 13 10 14 16 10 13 17 8 8 13 17 15 11 8 11 14 16 18 19 21 22 22 24
12 12 16 13 3 7 14 10 8 10 8 8 6 5 8 13 15 11 2 1 9 10 9 14 17 13 13 16 16 15 18 16 14 17 20 18 16 11 6 6 9 7 4 5 4 3 3 3 1 5 5 6 4 4 7 6 3 4 9 12 15 14 13 13 11 9 10 14 14 12 14 12 3 6 13 18 14 9 10 15 18 18 19 19 21 22 22 24
14 13 20 17 5 7 14 9 8 11 10 9 6 3 6 7 7 9 5 4 4 6 13 19 18 12 11 15 17 18 21 19 20 27 28 25 25 19 12 17 21 15 8 6 3 3 5 5 3 5 6 5 2 3 6 6 3 6 12 14 16 13 11 9 8 10 14 13 11 12 12 6 5 7 12 9 7 9 16 22 24 24 23 22 22 22 22 24
Wind_Direction
222 221 220 218 217 215 217 219 209 199 202 204 200 200 202 197 193 194 196 198 199 199 199 202 204 206 206 207 207 209 210 210 210 210 211 211 207 209 207 211 218 214 210 211 213 203 200 211 213 218 215 231 332 318 319 296 245 241 124 121 204 187 202 191 178 191 171 180 189 187 176 148 146 158 154 149 149 143 148 158 151 174 180 171 194 197 172 170
221 220 219 215 215 215 213 216 213 207 206 206 201 199 201 198 194 193 194 197 198 199 198 200 202 205 206 208 210 212 214 215 219 219 217 215 209 207 210 214 219 218 216 221 225 206 192 200 206 211 212 225 330 329 316 315 227 208 132 148 218 196 212 217 206 203 189 186 182 182 178 158 155 157 154 149 145 144 138 143 148 161 161 164 184 180 173 172
220 219 219 215 213 214 212 212 213 211 207 205 200 197 197 196 194 192 192 194 194 195 196 196 199 202 203 205 207 209 212 213 218 223 221 218 213 207 209 217 219 219 219 224 232 219 202 199 208 222 217 213 311 330 322 319 235 223 174 213 239 218 243 267 250 223 216 189 172 175 178 165 159 160 162 159 152 161 161 162 160 158 160 162 170 173 175 173
219 216 217 217 213 213 213 212 213 208 205 204 198 194 195 194 193 192 192 192 191 192 192 193 194 196 198 199 199 200 199 202 218 223 221 220 217 210 209 215 214 217 219 219 226 223 212 208 211 219 203 190 300 322 306 255 247 230 180 203 232 201 248 264 261 243 233 190 175 169 165 168 165 164 168 157 141 209 201 187 186 179 170 166 167 173 177 175
219 216 214 217 215 213 213 212 211 203 199 201 197 191 193 194 193 192 192 192 192 191 190 191 191 192 193 192 192 191 183 184 236 224 218 215 213 210 210 211 207 206 206 206 209 207 207 206 201 195 175 169 322 333 298 277 276 259 237 234 245 235 235 265 270 252 232 192 173 160 160 177 170 171 177 166 160 217 206 200 201 198 191 183 176 176 179 179
217 215 212 215 214 211 210 212 213 205 196 196 193 189 192 193 191 192 194 193 192 191 190 190 190 191 191 190 190 186 182 161 289 216 213 206 199 200 205 207 201 196 190 191 195 190 191 189 180 169 151 159 319 319 302 318 316 275 264 253 252 244 240 266 268 244 206 179 171 170 176 175 165 183 187 181 193 208 206 205 206 209 208 199 187 181 183 184
216 214 212 212 212 210 207 209 213 206 196 193 191 187 189 192 190 192 195 193 193 192 190 190 190 191 188 187 188 190 195 196 94 208 212 202 195 195 200 205 200 194 186 185 187 182 183 179 169 157 142 164 243 309 317 325 317 277 265 272 257 245 245 248 248 233 188 179 183 179 175 172 170 184 187 193 207 210 209 206 207 209 203 196 190 188 190 192
215 213 213 211 210 210 206 206 209 201 191 190 189 186 188 192 192 194 196 194 194 193 192 191 190 191 187 184 183 188 204 211 222 282 221 200 200 199 201 207 203 198 190 190 193 183 179 176 171 161 149 183 187 263 327 329 314 252 237 263 259 253 246 228 241 227 190 187 187 178 172 176 177 176 187 201 207 207 211 205 204 203 197 196 196 195 195 197
215 213 213 210 209 210 207 204 205 198 188 187 187 186 188 191 192 195 197 195 194 193 193 192 192 191 187 187 181 182 209 213 219 249 228 199 201 202 203 208 204 200 193 190 196 192 184 175 174 173 171 183 184 224 331 342 300 280 273 265 250 241 235 217 231 193 185 190 179 173 175 177 175 175 199 205 203 204 207 204 204 200 198 198 199 201 198 199
215 213 211 209 207 208 208 206 204 198 189 187 187 186 187 189 191 193 196 195 192 192 191 191 192 187 185 187 178 180 216 209 212 237 215 195 198 199 201 210 207 199 195 192 196 200 199 188 183 182 174 173 188 217 312 320 272 308 305 279 250 230 222 213 222 186 170 178 176 170 170 189 182 178 212 204 195 194 194 196 201 200 201 202 201 202 202 204
213 212 210 208 205 204 206 206 205 201 192 187 186 186 186 189 190 190 194 193 190 188 188 189 188 185 186 186 179 183 208 200 205 218 190 188 194 197 200 207 204 198 196 193 196 204 208 202 190 182 170 176 190 223 283 289 290 312 307 276 254 233 213 203 208 217 174 167 186 171 131 234 193 214 225 196 185 187 188 188 193 198 201 203 202 202 204 207
211 211 209 207 204 202 203 201 199 197 190 185 186 187 187 188 188 187 191 190 186 184 185 187 185 184 184 184 187 191 195 196 198 192 171 180 188 198 205 203 198 199 199 192 189 198 204 202 190 181 168 170 166 194 273 294 307 310 298 237 287 327 260 217 195 213 205 168 182 157 115 290 231 229 222 191 186 187 188 188 189 196 201 203 204 203 205 207
209 208 207 206 204 201 201 199 194 190 185 184 185 188 189 188 187 186 188 186 181 181 184 183 182 184 180 179 191 194 194 198 200 198 182 181 189 197 199 192 189 190 200 198 188 186 189 190 185 175 162 161 157 180 272 305 307 301 282 191 289 352 282 228 182 189 211 185 171 154 178 256 238 231 215 187 189 188 187 192 190 195 201 203 205 205 206 208
206 205 204 204 204 200 198 198 198 193 187 184 184 187 190 188 188 188 187 183 177 178 182 181 180 183 182 179 190 192 192 196 200 201 197 190 186 185 181 178 177 177 192 204 189 177 175 175 175 166 151 155 163 202 290 312 299 287 261 192 173 174 261 254 180 164 180 206 180 159 213 248 251 233 217 195 192 191 190 193 194 196 200 204 206 208 210 210
204 202 201 202 201 198 196 197 199 196 188 186 184 184 187 187 187 187 185 180 175 177 180 180 181 180 181 186 193 193 193 193 190 192 197 193 178 173 172 169 168 170 181 197 185 169 161 164 168 155 134 149 147 131 311 313 286 274 223 236 216 173 260 294 205 173 170 200 185 163 218 254 272 238 218 205 196 194 195 197 198 198 200 204 208 210 213 215
202 199 200 201 198 196 195 195 197 196 188 185 183 181 184 185 184 184 183 176 172 177 179 178 181 178 175 185 193 196 199 198 183 180 188 186 177 168 164 162 164 169 172 185 183 165 153 154 156 144 134 143 121 74 312 296 292 292 200 228 226 175 230 303 243 200 181 153 186 195 230 241 279 262 215 203 198 196 198 199 200 201 203 205 208 212 214 217
199 197 198 198 197 194 193 193 196 195 187 181 179 178 179 179 180 179 175 173 171 176 178 178 181 180 183 191 189 195 199 199 184 177 178 179 179 169 163 161 159 168 168 169 174 163 155 154 147 143 142 127 106 111 230 249 257 289 302 228 224 189 190 216 273 232 190 159 198 213 238 236 266 296 212 196 196 196 199 202 203 204 206 208 210 214 216 218
196 194 195 195 195 192 191 191 190 189 183 175 173 174 175 175 174 171 168 169 165 168 174 175 176 177 213 205 193 193 195 196 183 173 175 176 178 173 170 169 163 162 152 146 159 158 156 156 142 136 150 152 156 169 199 212 213 220 199 214 235 236 210 211 240 212 176 173 207 194 232 255 264 285 223 197 195 199 206 208 208 209 209 211 214 218 221 222
193 192 192 193 192 190 188 186 183 181 175 170 170 168 167 165 162 162 165 165 160 161 172 174 174 174 245 202 192 189 188 187 177 171 174 173 173 174 174 174 169 159 144 136 156 161 153 137 138 167 186 185 183 187 204 224 223 206 199 202 185 199 236 228 243 223 173 165 215 199 216 245 248 256 223 203 202 207 215 218 218 216 214 215 217 222 225 227
191 190 191 191 189 187 186 181 178 178 171 166 163 158 154 152 146 148 160 168 170 169 186 181 178 177 45 179 181 179 174 173 174 173 173 171 170 169 167 165 162 155 149 146 160 167 160 156 189 197 188 181 181 191 216 250 253 258 297 290 215 211 247 235 248 261 178 165 220 210 216 240 240 251 233 210 211 219 224 226 226 222 218 219 220 224 227 230
189 188 189 188 184 184 183 176 172 176 171 164 162 158 156 155 153 164 163 169 175 170 185 182 176 170 122 168 176 173 162 162 174 173 170 170 168 162 159 156 150 153 160 143 137 159 167 192 207 193 176 176 183 200 225 247 251 254 266 285 276 238 247 248 243 275 174 175 235 212 218 249 246 254 252 211 204 226 227 223 224 222 219 222 223 226 229 233
188 187 187 184 182 181 179 172 168 173 171 164 164 164 163 162 168 170 159 146 166 163 176 178 174 155 156 169 176 169 156 149 170 174 170 168 168 163 158 158 151 151 154 142 129 143 186 218 200 160 168 180 198 218 242 258 254 242 232 255 270 244 254 280 281 297 130 180 250 204 204 250 253 250 251 213 208 229 230 225 225 225 222 223 225 228 230 232
187 186 185 183 181 178 174 171 169 172 171 166 164 164 165 166 167 162 148 112 146 126 149 173 179 158 155 162 169 163 155 154 167 175 172 168 169 168 161 160 160 151 155 163 159 162 195 213 175 169 181 186 209 227 252 272 259 240 223 223 252 240 202 258 269 227 149 149 200 154 194 258 264 258 258 232 230 238 239 235 234 232 230 231 231 231 232 232
185 184 182 181 179 175 173 171 169 173 174 169 164 164 169 171 164 156 136 95 126 35 159 173 179 165 160 161 168 165 158 163 169 171 172 169 167 166 164 161 153 151 170 177 173 179 192 170 168 181 195 194 203 216 233 250 249 247 223 215 241 237 213 235 247 145 66 339 120 106 349 286 253 247 263 243 235 241 244 240 240 239 237 238 238 235 235 235
185 182 178 177 177 173 170 168 168 173 174 171 168 170 172 169 163 155 132 87 102 57 164 175 179 176 165 158 170 172 160 166 175 172 171 172 168 162 162 163 156 163 178 171 170 191 220 182 172 181 198 198 200 208 220 221 229 255 229 215 227 230 228 216 149 113 95 282 246 124 256 279 270 243 247 244 233 239 240 234 236 240 239 238 239 238 237 237
183 181 176 175 174 169 163 162 168 171 168 170 173 172 170 162 159 156 136 79 143 115 160 173 177 178 167 159 166 164 156 176 183 177 173 175 173 162 155 160 159 174 171 167 173 187 221 190 172 181 190 192 202 209 217 210 206 245 236 220 225 218 198 172 158 147 161 234 266 146 196 260 304 257 240 241 240 249 245 234 236 238 239 237 238 239 238 236
179 176 174 173 172 166 161 161 167 168 165 168 172 168 163 158 157 156 136 58 189 157 159 170 169 172 171 169 165 155 153 172 172 180 178 175 174 166 162 162 154 172 167 166 196 187 189 182 176 190 185 186 202 202 211 202 187 237 243 208 208 188 177 177 172 181 196 214 313 10 167 239 277 252 252 238 237 263 261 246 243 240 238 238 238 239 238 237
175 171 171 173 172 170 166 164 166 169 168 166 166 163 157 156 159 156 132 114 163 142 157 166 161 169 169 172 173 160 138 156 156 184 182 175 173 168 171 180 161 167 172 170 192 193 177 181 184 190 190 196 197 188 199 192 191 240 222 169 188 181 177 178 171 182 154 139 265 292 164 201 266 271 297 336 218 260 259 242 240 237 236 236 237 239 239 238
175 170 171 171 170 171 170 168 167 169 168 163 160 159 154 155 158 151 121 171 143 125 161 157 153 166 163 167 179 159 138 158 164 176 179 178 180 175 176 187 170 162 181 183 184 191 188 192 186 183 195 203 179 176 189 191 212 226 155 113 66 44 74 119 149 143 77 159 232 241 190 196 267 279 299 303 230 248 254 244 234 235 236 236 237 239 239 239
177 172 169 168 167 168 167 165 165 165 164 162 158 155 154 154 154 149 183 182 136 146 159 152 161 167 160 161 181 157 146 163 152 157 173 184 183 181 168 177 169 144 178 187 180 204 343 191 189 182 191 188 170 174 188 199 202 155 116 91 50 33 45 46 71 103 119 242 247 240 212 190 261 275 241 219 223 220 236 256 250 241 238 237 238 239 240 239
174 171 168 167 167 167 162 157 164 167 163 160 157 154 152 146 135 159 175 151 124 153 151 146 165 161 162 166 168 163 150 126 145 153 168 186 179 174 151 167 165 119 126 164 192 292 24 119 191 198 185 170 152 155 176 195 180 144 128 117 94 346 14 19 356 51 181 243 260 251 215 173 225 262 243 236 258 237 224 248 258 251 245 240 238 238 239 238
170 170 169 167 167 168 164 160 164 167 161 159 159 158 151 128 169 185 155 142 146 180 167 162 170 163 168 169 153 158 141 123 163 161 162 167 174 184 173 181 172 149 175 179 176 326 49 202 265 208 199 170 146 148 136 115 151 163 156 137 161 259 1 223 258 272 225 244 268 255 195 203 228 250 260 266 272 256 233 239 254 265 269 265 251 241 238 235
166 166 167 167 167 168 167 163 162 162 160 161 160 158 148 154 179 169 147 165 172 171 165 161 162 159 162 161 150 158 136 142 175 165 159 157 161 197 222 215 179 160 172 168 150 159 212 288 302 140 227 205 173 166 170 167 165 178 167 154 181 180 150 210 237 276 259 259 271 267 246 258 271 261 250 250 258 264 264 260 265 273 279 281 266 244 234 229
162 162 165 167 168 169 167 163 162 161 162 162 159 151 156 173 173 131 152 182 155 145 151 145 141 145 156 162 168 169 120 69 176 158 153 157 164 197 220 216 193 150 115 149 168 177 187 239 224 175 178 194 190 182 168 154 156 189 168 141 174 174 168 209 220 212 241 269 278 289 242 203 204 247 240 242 263 283 292 272 262 266 273 271 251 232 222 219
160 163 165 165 165 167 166 164 162 162 162 161 158 156 168 177 174 153 160 165 138 137 141 139 137 143 160 161 176 189 158 121 180 159 163 176 181 190 192 200 199 153 136 171 188 168 178 216 264 278 266 161 187 205 151 136 159 206 143 130 190 189 159 182 202 183 184 262 268 248 232 212 209 269 275 266 271 283 291 272 251 247 247 226 215 217 213 215
159 161 162 160 160 162 164 165 163 163 163 159 160 183 179 183 175 160 158 153 148 144 138 141 146 149 161 154 182 208 208 145 166 167 181 190 191 192 187 188 190 178 163 167 164 139 166 217 321 348 325 31 170 222 163 163 186 164 135 189 218 167 123 131 222 133 100 226 256 211 247 287 312 289 296 313 281 272 273 267 244 229 217 203 207 213 215 219
157 155 155 156 159 160 162 164 163 164 165 161 174 188 178 157 154 133 133 139 140 140 139 146 164 164 164 169 183 193 188 140 167 177 177 178 198 195 191 193 186 186 179 155 165 207 153 172 317 80 168 285 357 16 348 343 128 132 179 201 185 113 103 122 200 21 62 235 268 254 225 273 301 270 312 340 294 268 263 259 253 232 212 207 210 213 218 224
151 148 150 156 161 161 161 163 163 163 164 168 189 189 142 80 155 129 131 137 138 144 147 153 171 178 174 174 179 182 174 166 179 184 171 178 225 193 181 193 185 182 185 157 150 213 138 116 306 17 183 274 2 69 266 347 31 129 177 168 142 177 207 159 178 194 199 233 275 302 255 253 211 219 293 302 256 251 255 252 252 234 219 216 214 214 220 224
145 144 143 154 161 163 163 163 162 161 164 183 188 193 170 134 151 142 141 141 143 150 156 160 163 171 179 173 164 173 182 177 172 175 178 187 233 201 177 181 176 179 183 164 152 200 142 130 254 284 240 276 10 132 189 247 1 45 92 128 130 181 188 186 172 172 193 220 253 298 301 266 229 214 227 243 243 243 235 228 233 228 220 217 216 214 217 221
145 141 139 158 161 163 162 160 159 163 177 188 179 228 220 122 138 150 148 146 147 157 162 163 161 159 168 166 158 169 179 164 165 180 218 182 195 227 188 177 160 170 173 160 161 180 132 131 191 289 336 149 188 209 184 181 184 145 136 173 202 146 150 208 202 132 147 188 206 250 281 267 250 211 201 228 249 251 224 220 234 233 224 219 218 215 217 221
145 131 144 161 164 163 158 155 159 174 187 166 173 285 212 136 143 155 154 151 149 153 156 155 160 157 154 159 163 170 164 148 169 181 201 183 182 224 200 177 154 150 152 156 180 181 149 145 152 160 172 183 228 237 197 191 191 172 173 183 185 165 124 171 228 204 124 183 178 170 254 268 256 212 205 231 258 272 251 238 240 239 229 221 217 215 218 222
140 121 157 164 168 166 160 157 174 178 173 167 191 272 161 140 145 156 158 154 146 111 137 146 156 155 154 164 165 167 163 154 178 183 182 193 188 191 192 176 161 159 162 165 185 169 118 110 124 166 211 209 241 251 200 203 269 226 221 195 177 179 151 168 213 228 188 226 151 142 246 268 260 218 210 238 264 279 279 262 251 248 235 222 217 214 217 220
124 117 153 164 170 169 165 161 169 166 181 191 238 283 161 141 149 156 159 160 151 120 136 143 156 159 164 169 161 165 168 162 184 187 170 177 189 193 184 174 163 163 167 159 166 153 108 97 107 20 312 306 306 312 355 66 49 271 264 237 172 194 182 171 185 169 191 213 157 186 254 265 272 261 242 259 274 283 286 276 261 257 242 226 216 211 215 218
116 120 146 163 171 172 171 173 174 174 181 185 229 252 162 137 156 160 160 167 160 136 142 149 158 160 161 162 162 170 171 169 193 192 163 161 187 195 180 174 167 167 180 182 176 171 166 152 131 119 20 337 335 317 292 72 71 234 253 274 232 167 130 133 133 117 230 227 171 191 244 251 270 304 299 283 289 290 279 269 264 261 246 229 215 208 214 217
120 122 140 160 170 177 181 171 164 169 170 181 203 205 149 122 165 166 161 163 157 135 137 146 150 140 126 143 153 169 173 164 169 178 154 150 172 51 177 179 177 178 189 183 168 165 174 178 157 155 177 197 208 228 216 177 135 231 219 212 212 169 154 169 141 148 236 232 157 192 239 253 276 301 306 296 301 293 275 262 257 256 246 228 213 209 213 217
133 128 128 153 173 186 196 83 124 159 171 182 198 196 155 133 157 165 157 158 160 137 123 124 139 126 128 148 147 171 183 157 92 161 156 152 169 349 173 182 186 184 179 167 159 154 147 182 184 192 200 197 188 190 168 139 153 206 204 183 195 196 183 168 149 194 213 171 185 227 232 238 253 263 278 286 282 271 271 265 252 243 235 224 214 211 215 218
147 157 158 155 166 186 200 203 166 172 180 184 185 183 163 146 141 158 157 167 163 141 106 99 148 145 157 160 155 174 180 141 101 154 151 149 158 33 130 166 179 176 159 161 161 149 102 202 199 206 209 193 156 159 159 150 173 199 193 188 201 195 175 170 202 214 161 121 243 239 219 226 241 245 257 268 270 265 266 263 253 241 230 222 215 215 217 218
159 172 178 168 148 176 191 190 184 179 181 187 181 152 156 153 158 166 165 103 152 149 121 135 171 168 165 163 157 163 167 149 149 162 148 141 136 80 75 96 136 158 147 160 164 146 139 201 201 194 197 185 148 165 168 167 187 195 188 197 201 187 183 195 218 219 168 195 243 237 211 234 235 234 248 248 244 249 258 265 263 251 236 225 217 216 217 217
143 157 180 178 164 157 143 144 161 173 179 184 183 167 166 164 165 164 140 127 154 172 157 160 180 173 164 164 155 156 171 173 175 177 158 146 146 128 112 105 116 137 121 143 165 154 169 197 188 168 177 190 172 174 177 179 190 196 197 205 200 192 197 203 216 220 203 223 247 243 246 253 232 210 241 249 245 251 263 273 269 254 239 228 220 219 219 219
143 156 175 172 150 112 112 113 142 171 184 184 189 194 175 169 167 160 146 158 164 184 176 162 171 167 162 166 162 173 188 177 164 172 160 144 154 159 151 161 165 116 107 137 159 168 192 205 175 145 158 220 203 175 183 191 194 199 210 216 209 205 209 212 219 220 209 234 250 244 252 260 233 192 238 253 251 252 268 267 258 249 240 230 223 223 224 225
154 164 167 158 113 128 137 136 154 168 190 198 197 198 181 178 171 154 85 109 155 170 174 158 156 155 161 172 175 185 187 168 152 161 160 157 167 173 173 168 156 142 140 161 158 151 173 193 132 121 160 229 231 170 182 183 177 229 237 228 214 209 214 218 219 208 201 224 238 237 246 253 180 168 234 245 239 232 246 253 255 253 244 233 229 229 230 230
144 147 156 150 108 145 155 148 158 175 193 191 180 176 166 169 167 149 126 32 53 132 154 150 145 146 162 180 190 189 180 169 160 161 163 167 169 168 164 161 160 158 158 157 151 149 150 149 139 144 174 233 279 148 150 120 114 249 244 220 209 211 213 217 228 223 215 216 219 228 238 225 148 194 231 235 212 221 239 243 247 252 248 241 239 237 238 236